Wind_Speed
25 22 21 21 19 20 22 23 23 22 21 22 22 22 21 21 21 21 20 20 19 18 18 17 17 17 16 16 17 17 17 17 17 18 18 19 19 19 19 19 20 21 21 21
27 24 23 22 23 22 22 24 24 24 24 24 23 24 24 25 24 23 22 21 21 20 20 20 19 18 18 18 18 19 19 19 19 19 19 20 20 21 21 21 21 22 22 22
28 25 24 25 23 24 24 23 24 25 26 25 26 26 26 27 27 25 25 24 23 22 22 21 21 20 19 19 20 21 21 21 21 20 21 21 20 21 22 22 23 23 23 23
28 27 27 26 25 25 27 26 28 27 27 28 28 28 29 27 27 27 26 25 24 23 23 22 22 21 22 22 22 23 23 23 23 23 22 22 21 22 23 24 25 25 24 24
29 28 28 27 27 27 28 29 30 30 30 30 29 28 29 27 26 27 26 25 25 24 24 24 24 24 24 24 24 24 25 25 25 25 24 24 24 25 26 26 26 27 26 25
31 30 30 30 28 29 29 30 30 31 30 29 29 29 29 28 28 28 28 26 26 26 25 25 26 26 27 27 27 27 27 27 27 26 26 26 26 27 28 28 28 28 27 26
32 32 32 32 31 29 30 31 31 30 30 30 31 31 31 31 29 28 28 27 27 27 26 26 26 27 28 28 29 28 28 28 27 27 28 28 28 29 30 30 30 29 28 27
33 33 33 31 32 33 32 32 32 31 30 31 31 31 31 32 30 29 29 29 29 28 27 27 28 28 29 29 29 29 29 28 28 28 29 30 31 32 32 31 31 30 30 29
34 35 34 34 33 32 32 32 32 32 31 31 31 31 31 32 31 30 30 30 30 30 29 28 29 29 29 29 29 29 30 30 30 30 30 31 32 32 32 31 31 31 31 31
35 35 35 34 34 35 33 32 32 32 31 32 32 32 32 32 32 31 31 30 30 30 30 29 30 29 30 30 30 31 31 32 31 32 32 33 33 32 32 32 32 33 33 33
36 36 37 36 35 34 34 33 33 33 33 32 32 33 33 33 33 32 31 31 31 31 31 30 30 30 31 31 31 32 32 32 33 34 35 34 34 33 33 33 34 34 35 35
35 35 37 37 37 35 33 33 31 31 32 31 31 32 32 32 32 31 31 32 31 31 31 32 32 32 32 32 32 33 33 33 33 34 34 35 35 34 34 35 35 36 36 36
37 37 36 35 34 33 33 33 32 31 30 30 31 31 31 31 31 31 31 32 32 32 32 32 33 34 34 34 34 34 34 34 34 34 34 35 35 36 35 36 36 36 37 37
37 37 36 35 34 34 35 33 31 30 29 29 30 31 30 31 30 30 31 31 32 32 33 33 34 34 34 34 33 33 34 35 35 35 35 36 37 37 37 38 37 37 37 37
35 35 34 33 34 33 33 32 30 29 29 29 30 30 29 30 29 29 30 31 32 33 33 34 34 34 34 34 33 34 35 35 36 36 36 36 37 37 38 39 38 37 36 36
33 33 33 32 32 32 30 29 29 30 29 29 29 28 28 28 29 29 29 30 31 32 33 33 34 34 34 34 33 34 35 35 36 36 36 36 37 37 37 37 36 36 36 35
30 30 30 30 30 30 29 29 29 28 28 28 28 28 29 29 28 27 29 30 31 31 32 32 33 34 34 34 34 35 35 36 36 35 34 35 36 36 35 34 34 34 35 35
29 29 29 28 28 28 27 27 28 28 26 26 27 28 28 28 27 27 28 29 30 31 31 31 32 33 34 35 36 35 34 34 34 35 35 35 34 34 33 33 33 33 33 34
28 28 28 27 27 27 27 26 27 26 25 25 25 25 25 25 26 27 27 28 29 30 30 30 30 31 31 32 32 33 33 33 34 33 33 33 33 33 32 32 32 32 33 34
25 26 26 26 27 27 26 25 26 25 25 25 24 24 24 24 25 25 25 25 25 26 27 27 27 28 28 29 29 30 30 30 31 31 31 31 32 32 32 32 32 32 33 33
24 24 25 26 26 25 25 25 24 24 24 23 23 23 23 24 24 24 24 25 25 25 25 25 25 26 27 27 28 28 28 29 29 29 30 30 31 31 32 32 32 32 33 33
23 23 24 24 24 23 23 23 24 23 22 22 21 22 22 23 23 23 23 24 24 24 24 25 26 26 27 27 27 27 28 28 28 28 28 29 30 30 30 31 31 32 33 34
22 22 21 22 22 22 22 23 22 22 21 21 21 21 21 21 21 22 22 23 23 24 24 25 25 26 26 25 26 26 26 26 26 27 27 28 28 29 29 30 30 31 32 32
20 19 19 19 19 19 18 17 17 18 19 19 19 19 19 20 20 21 22 22 23 23 24 24 24 23 23 23 23 23 24 25 25 25 26 26 27 28 28 29 30 31 31 32
18 18 18 17 16 15 15 15 15 16 16 16 16 17 18 18 18 19 19 20 21 22 22 22 21 22 22 22 22 22 23 23 24 25 25 25 26 27 28 28 29 30 31 31
15 15 15 14 14 14 14 15 15 15 15 15 15 16 16 16 17 17 16 17 17 18 18 19 19 19 19 20 20 21 22 23 24 25 25 26 27 27 27 28 29 30 31 32
13 14 14 13 13 13 14 14 14 14 14 14 14 14 14 15 15 14 14 15 15 15 15 16 16 17 18 19 20 20 21 22 24 25 26 26 27 28 29 30 30 31 32 33
Wind_Direction
230 226 229 237 234 234 237 234 239 241 246 256 258 260 261 262 265 266 267 266 267 270 273 277 282 286 289 292 294 297 297 298 297 300 300 301 303 304 306 307 307 306 305 305
232 230 232 237 239 238 240 244 247 246 245 250 255 257 258 258 259 264 267 266 268 270 270 272 276 281 285 289 291 293 296 298 297 298 297 298 301 304 307 307 305 306 304 302
233 232 231 236 238 239 238 242 246 249 251 250 254 258 258 259 262 264 266 268 269 269 268 270 272 276 281 285 288 290 291 292 294 295 296 297 298 301 305 305 305 307 303 301
235 234 234 236 236 241 243 243 243 247 250 252 256 259 259 258 261 263 264 265 266 267 267 267 269 273 278 283 285 287 289 290 291 293 295 296 298 300 301 303 304 305 303 300
235 238 238 239 238 239 243 246 245 245 249 252 255 259 257 257 259 261 263 265 264 265 266 267 268 272 275 280 283 285 288 289 288 289 292 294 296 297 299 301 303 305 303 301
234 237 239 238 239 240 242 247 247 246 248 251 256 256 258 257 260 261 266 264 264 263 264 266 268 272 275 279 283 285 286 287 286 287 288 291 293 296 297 298 299 300 300 299
234 238 242 241 240 241 242 246 249 250 251 254 256 256 258 259 261 262 265 264 263 263 264 266 268 271 274 278 282 284 284 285 284 286 289 290 292 294 295 295 295 295 295 295
234 236 240 240 241 242 244 247 251 252 252 255 258 259 260 261 263 264 263 265 264 264 264 265 267 270 274 277 280 281 282 284 285 288 291 291 291 292 292 293 293 293 293 292
233 236 240 244 244 244 246 249 252 256 255 256 259 260 261 262 263 263 263 264 264 264 264 265 267 270 273 276 279 281 281 283 285 287 289 291 291 291 292 293 294 294 293 293
231 235 238 243 244 246 247 248 251 255 256 256 258 260 261 262 263 262 262 263 263 264 264 266 268 270 272 275 277 279 281 282 284 286 287 289 290 292 294 294 294 295 295 294
237 239 241 244 246 248 250 251 255 256 256 258 259 260 261 262 262 261 260 261 262 263 264 266 268 270 272 274 276 278 281 283 284 286 286 287 289 291 293 294 295 294 293 293
236 240 241 245 248 249 250 252 255 257 256 257 259 259 259 260 260 260 260 261 262 262 264 266 268 270 271 274 276 278 281 282 283 286 287 288 289 291 292 293 293 292 292 291
239 242 245 246 248 250 251 253 254 255 254 254 255 257 258 259 259 260 261 262 262 262 264 266 269 271 272 274 275 277 279 281 283 285 287 289 291 292 293 293 293 291 290 290
241 244 247 248 250 251 251 252 254 255 254 254 255 256 257 258 259 261 263 263 264 264 265 266 268 270 272 275 274 274 277 281 284 286 288 290 290 290 292 292 293 292 290 289
245 245 247 248 247 249 249 249 252 253 254 256 257 257 257 259 260 262 263 264 266 267 267 267 268 270 274 275 275 276 279 281 283 286 288 289 290 291 292 293 294 293 291 289
244 243 244 246 246 248 248 247 249 252 256 256 257 258 259 260 261 263 265 266 268 268 267 267 268 270 272 275 276 278 280 282 284 286 288 289 290 291 294 294 295 295 293 291
241 240 242 243 244 246 247 248 251 255 255 255 256 259 260 260 261 263 266 267 268 269 268 268 270 270 272 275 277 279 281 283 284 286 288 289 290 291 292 294 295 295 294 294
238 239 241 241 242 243 246 249 252 254 254 253 256 258 260 262 264 265 267 269 271 273 273 273 274 275 276 278 278 278 280 282 284 286 287 289 290 292 291 291 294 295 294 296
237 239 240 239 240 241 245 248 251 253 254 256 258 260 261 262 264 266 269 271 274 275 275 276 277 277 277 278 279 280 283 284 286 287 289 289 288 289 290 291 293 293 294 295
237 238 238 237 239 241 244 248 251 254 255 256 257 258 258 260 263 267 270 272 274 276 277 278 279 279 280 281 284 286 287 288 289 290 289 288 289 290 292 293 294 294 295 296
235 237 236 237 239 241 244 247 249 250 253 254 255 257 258 260 263 267 271 274 277 279 279 280 281 282 283 284 286 287 288 290 291 290 290 291 292 293 293 294 293 293 294 296
233 235 236 237 239 242 244 245 247 248 251 252 254 257 261 265 268 272 275 277 279 281 282 281 282 283 284 287 288 289 290 291 292 292 292 293 293 293 293 294 295 295 295 296
229 232 233 234 236 239 241 242 245 248 249 250 253 257 262 268 270 273 275 278 281 283 284 284 285 285 286 287 289 290 290 292 294 295 296 297 297 296 296 296 296 296 295 295
224 226 230 232 235 236 236 239 243 246 248 249 252 258 264 269 273 276 278 279 281 284 286 286 287 287 287 288 290 291 293 294 296 298 301 301 300 299 298 297 297 298 298 297
222 225 227 228 231 234 237 238 242 245 247 251 255 259 263 269 274 279 283 283 284 285 286 287 287 288 290 291 292 292 295 298 299 302 304 304 304 302 301 301 300 300 301 302
216 218 219 223 227 231 236 239 243 248 252 255 257 260 265 270 274 280 285 287 288 289 290 292 294 293 294 297 297 298 300 301 302 303 304 306 306 305 304 303 305 306 305 305
219 220 222 225 227 232 238 243 248 252 253 255 255 260 266 271 274 280 287 294 297 298 298 298 298 298 298 300 303 305 305 305 307 308 308 308 308 307 307 307 307 308 308 306
Height
5859 5863 5865 5867 5870 5872 5875 5877 5879 5879 5880 5880 5880 5880 5879 5880 5880 5880 5880 5881 5882 5882 5883 5882 5882 5881 5881 5881 5880 5879 5879 5878 5877 5876 5875 5874 5873 5871 5870 5869 5867 5866 5864 5863
5853 5856 5859 5862 5865 5867 5870 5871 5871 5872 5873 5874 5872 5873 5873 5874 5873 5875 5875 5875 5876 5877 5878 5878 5878 5878 5877 5877 5876 5876 5875 5874 5873 5872 5871 5870 5869 5867 5865 5864 5862 5861 5859 5858
5846 5850 5852 5856 5859 5861 5863 5865 5865 5865 5866 5866 5866 5867 5867 5868 5869 5870 5871 5870 5872 5873 5873 5873 5873 5873 5873 5873 5872 5871 5871 5869 5868 5867 5866 5865 5864 5863 5861 5859 5858 5856 5854 5852
5840 5843 5845 5852 5852 5854 5856 5856 5857 5858 5858 5859 5860 5860 5860 5861 5864 5865 5865 5865 5866 5867 5868 5868 5868 5868 5868 5868 5867 5866 5865 5864 5863 5862 5861 5860 5859 5858 5856 5854 5852 5850 5848 5846
5832 5835 5839 5842 5844 5846 5848 5849 5850 5851 5852 5852 5853 5854 5853 5855 5856 5858 5858 5859 5860 5861 5862 5863 5863 5863 5863 5862 5862 5861 5860 5859 5858 5857 5856 5854 5853 5851 5850 5848 5846 5844 5842 5840
5825 5828 5830 5834 5836 5837 5841 5842 5841 5842 5843 5844 5846 5847 5847 5847 5849 5850 5849 5851 5854 5855 5856 5856 5857 5857 5857 5856 5856 5854 5854 5852 5851 5851 5849 5848 5847 5845 5843 5842 5840 5838 5836 5834
5817 5820 5822 5825 5826 5829 5833 5833 5832 5833 5835 5837 5838 5839 5840 5841 5842 5843 5843 5845 5846 5847 5849 5850 5850 5851 5850 5850 5849 5848 5847 5846 5845 5843 5842 5841 5840 5838 5836 5834 5833 5831 5830 5828
5808 5812 5814 5814 5817 5821 5822 5824 5824 5826 5827 5829 5830 5831 5832 5833 5835 5835 5837 5838 5839 5840 5842 5843 5843 5843 5843 5843 5842 5841 5840 5839 5838 5837 5835 5834 5832 5830 5829 5827 5825 5823 5821 5820
5800 5803 5804 5805 5808 5810 5812 5815 5816 5818 5819 5821 5822 5823 5824 5825 5827 5828 5829 5830 5831 5833 5834 5835 5835 5836 5836 5835 5835 5834 5833 5832 5831 5830 5828 5826 5824 5822 5821 5819 5817 5815 5813 5811
5790 5793 5795 5797 5799 5802 5804 5807 5808 5810 5812 5813 5814 5815 5816 5817 5818 5820 5821 5822 5823 5824 5826 5827 5827 5828 5828 5828 5827 5826 5825 5824 5823 5821 5820 5818 5816 5814 5813 5811 5809 5807 5804 5802
5782 5785 5787 5789 5792 5794 5796 5798 5800 5801 5802 5803 5805 5806 5807 5809 5810 5811 5813 5814 5815 5816 5818 5819 5819 5820 5820 5820 5819 5818 5817 5816 5814 5813 5812 5810 5808 5806 5804 5802 5800 5798 5796 5794
5773 5776 5779 5781 5784 5786 5788 5790 5792 5792 5793 5795 5796 5797 5798 5800 5802 5803 5804 5806 5807 5808 5809 5810 5811 5811 5811 5811 5810 5809 5808 5807 5806 5804 5803 5801 5799 5798 5795 5793 5791 5788 5786 5784
5765 5767 5770 5773 5775 5777 5779 5781 5783 5784 5785 5786 5788 5789 5790 5792 5793 5795 5796 5797 5799 5800 5801 5802 5802 5802 5802 5802 5801 5800 5799 5798 5797 5795 5794 5792 5790 5788 5786 5784 5781 5779 5777 5774
5756 5759 5761 5764 5766 5768 5770 5772 5774 5775 5776 5777 5779 5781 5782 5784 5785 5786 5788 5789 5790 5791 5792 5793 5793 5793 5793 5792 5791 5789 5789 5788 5787 5786 5785 5783 5780 5778 5776 5773 5771 5769 5767 5764
5747 5750 5752 5754 5757 5759 5761 5763 5766 5767 5768 5770 5771 5773 5774 5776 5777 5778 5780 5781 5782 5782 5783 5783 5784 5784 5783 5783 5782 5780 5779 5779 5778 5776 5775 5773 5770 5768 5765 5763 5760 5758 5756 5753
5738 5741 5743 5746 5748 5750 5752 5755 5757 5759 5760 5762 5763 5765 5766 5768 5769 5771 5771 5772 5773 5773 5773 5774 5774 5775 5775 5774 5772 5771 5770 5769 5768 5766 5764 5762 5760 5758 5755 5753 5750 5748 5745 5743
5730 5733 5735 5738 5740 5742 5745 5747 5749 5751 5753 5754 5756 5757 5759 5760 5762 5763 5763 5764 5764 5764 5764 5765 5765 5765 5764 5763 5762 5761 5760 5759 5758 5756 5754 5752 5750 5748 5745 5743 5740 5738 5735 5733
5722 5725 5728 5730 5733 5735 5738 5741 5743 5745 5746 5747 5749 5750 5752 5753 5754 5755 5756 5756 5756 5756 5756 5756 5756 5755 5755 5754 5753 5751 5750 5749 5748 5746 5744 5742 5740 5738 5735 5733 5731 5729 5726 5723
5715 5718 5721 5723 5726 5729 5732 5734 5736 5738 5739 5741 5742 5744 5745 5746 5747 5748 5749 5749 5748 5748 5748 5748 5747 5746 5746 5745 5743 5742 5741 5739 5738 5736 5734 5732 5730 5728 5726 5724 5722 5719 5716 5714
5709 5712 5714 5717 5720 5723 5726 5728 5730 5732 5733 5734 5736 5737 5738 5739 5740 5741 5742 5742 5741 5740 5740 5740 5739 5738 5737 5736 5735 5734 5732 5730 5729 5727 5725 5723 5721 5718 5716 5714 5712 5709 5707 5705
5703 5706 5709 5711 5714 5717 5720 5722 5724 5725 5726 5728 5730 5731 5732 5733 5734 5734 5735 5735 5734 5734 5733 5732 5731 5730 5729 5728 5727 5725 5723 5722 5720 5717 5715 5713 5711 5709 5706 5704 5702 5699 5697 5695
5698 5701 5704 5707 5709 5712 5714 5716 5718 5719 5720 5722 5724 5725 5726 5727 5728 5728 5728 5728 5728 5727 5726 5725 5724 5722 5721 5720 5718 5717 5715 5713 5711 5709 5706 5704 5701 5699 5697 5694 5692 5690 5688 5685
5693 5697 5700 5702 5704 5706 5708 5710 5712 5714 5715 5717 5718 5719 5720 5721 5721 5722 5722 5722 5721 5720 5719 5717 5716 5715 5713 5712 5710 5709 5707 5705 5703 5700 5698 5695 5693 5690 5688 5685 5683 5681 5678 5676
5689 5692 5695 5697 5699 5700 5701 5704 5706 5708 5710 5711 5712 5713 5715 5715 5716 5716 5715 5715 5714 5713 5712 5711 5709 5708 5706 5705 5703 5702 5700 5698 5695 5693 5690 5688 5685 5682 5679 5677 5674 5672 5669 5667
5685 5688 5691 5693 5695 5696 5697 5700 5702 5704 5705 5706 5707 5708 5710 5710 5711 5710 5709 5708 5708 5707 5705 5704 5703 5701 5700 5698 5696 5694 5693 5691 5688 5686 5684 5681 5678 5675 5672 5669 5666 5664 5661 5658
5682 5685 5688 5690 5690 5693 5696 5697 5698 5699 5700 5702 5703 5704 5705 5706 5705 5705 5704 5703 5702 5701 5700 5699 5697 5696 5694 5692 5690 5689 5687 5685 5682 5680 5677 5674 5671 5668 5665 5662 5659 5656 5652 5649
5680 5682 5684 5686 5689 5691 5693 5693 5694 5695 5697 5698 5699 5700 5701 5701 5701 5701 5700 5699 5698 5696 5695 5694 5692 5691 5689 5687 5685 5683 5681 5678 5676 5673 5670 5667 5664 5661 5658 5655 5651 5648 5644 5640